[[{"header":{"parameterUnit":"m.s-1","parameterCategory":1,"la1":30.2991,"la2":30.254,"lo1":-89.0895,"lo2":-89.0444,"dy":0.0017,"dx":0.0017,"nx":28,"ny":28,"refTime":"2024-07-06T03:00:00:Z","depth":0,"parameterNumber":2,"parameterNumberName":"U-component_of_WINDS"},"data":[0,0,0,0,0,0,0,0,0,0,0,0,0,0,0,0,0,0,0,0,0,0,0,0,0,0,0,0,0,0,0,0,0,0,0,0,0,0,0,0,0,0,0,0,0,0,0,0,0,0,0,0,0,0,0,0,0,0,-0.6752,-0.6751,0,-0.6663,-0.6662,-0.6661,-0.6601,-0.6601,-0.6601,-0.66,-0.6506,-0.6504,-0.6502,0,0,0,0,0,0,0,0,0,0,0,0,0,-0.6869,-0.6867,-0.6752,-0.6751,-0.675,-0.6663,-0.6662,-0.666,-0.6601,-0.6601,-0.6601,-0.66,-0.6507,-0.6505,-0.6502,0,0,0,0,0,0,0,0,0,0,0,0,0,-0.6803,-0.6867,-0.6752,-0.671,-0.6705,-0.6663,-0.6661,-0.666,-0.6602,-0.6601,-0.66,-0.66,-0.6508,-0.6505,-0.6502,-0.6494,0,0,-0.6492,-0.6491,0,0,0,0,0,0,0,0,-0.6807,-0.6799,-0.6717,-0.6713,-0.6707,-0.6643,-0.6668,-0.6604,-0.6602,-0.6641,-0.66,-0.66,-0.6552,-0.6545,-0.653,-0.6489,-0.6485,-0.6492,-0.649,-0.6488,-0.6487,0,0,0,0,0,0,0,-0.6812,-0.6802,-0.6716,-0.6716,-0.671,-0.6695,-0.6685,-0.6656,-0.6601,-0.6637,-0.6633,-0.6623,-0.6549,-0.6533,-0.6527,-0.6484,-0.6492,-0.6489,-0.6487,-0.6486,-0.6432,-0.6433,0,0,0,0,0,0,-0.6823,-0.6806,-0.6719,-0.6714,-0.6757,-0.6693,-0.6682,-0.6664,-0.6601,-0.6591,-0.6624,-0.6621,-0.6539,-0.6531,-0.6524,-0.651,-0.6488,-0.6485,-0.6484,-0.6432,-0.6433,-0.6433,0,0,0,0,0,0,-0.6826,-0.6816,-0.6723,-0.6759,-0.6746,-0.6692,-0.6672,-0.6662,-0.6646,-0.6591,-0.658,-0.6618,-0.6538,-0.6528,-0.6502,-0.6506,-0.6484,-0.6481,-0.6431,-0.6432,-0.6433,-0.6484,0,0,0,0,0,0,-0.6829,-0.6817,-0.6814,-0.6759,-0.6744,-0.6704,-0.6672,-0.6661,-0.6641,-0.6636,-0.6582,-0.6572,-0.6537,-0.6507,-0.6499,-0.6501,-0.6479,-0.6431,-0.6432,-0.6433,-0.6481,-0.6486,-0.649,0,0,0,0,0,-0.6834,-0.6831,-0.6814,-0.6804,-0.6739,-0.6704,-0.6695,-0.6655,-0.6642,-0.6638,-0.6602,-0.6574,-0.6507,-0.6505,-0.6495,-0.6497,-0.643,-0.6431,-0.6433,-0.6479,-0.6485,-0.649,0,0,0,0,0,0,-0.6887,-0.6823,-0.6804,-0.6784,-0.675,-0.6694,-0.6688,-0.6662,-0.6631,-0.6627,-0.6578,-0.6566,-0.6545,-0.6518,-0.6517,-0.6486,-0.6465,-0.6464,-0.6504,-0.6509,-0.6514,-0.6521,-0.6476,0,0,0,0,0,-0.6897,-0.6874,-0.6819,-0.6807,-0.6791,-0.6743,-0.6726,-0.6698,-0.666,-0.6645,-0.6608,-0.6572,-0.6542,-0.6524,-0.6494,-0.6477,-0.6464,-0.6473,-0.6478,-0.6482,-0.6482,-0.6471,-0.6474,-0.6437,-0.6437,-0.6437,0,0,-0.6916,-0.6879,-0.6867,-0.6817,-0.6787,-0.6764,-0.6731,-0.6708,-0.669,-0.6641,-0.6615,-0.6586,-0.6542,-0.6521,-0.651,-0.6498,-0.6489,-0.6483,-0.6487,-0.6484,-0.6472,-0.6476,-0.6479,-0.6438,-0.6437,-0.6437,0,0,-0.694,-0.6909,-0.6896,-0.6867,-0.6823,-0.6791,-0.6788,-0.6736,-0.6715,-0.6688,-0.6651,-0.6628,-0.6579,-0.655,-0.6529,-0.6542,-0.6514,-0.6533,-0.6556,-0.6546,-0.6549,-0.6551,-0.6556,-0.6558,-0.6533,-0.6533,-0.6533,0,-0.6969,-0.6934,-0.6892,-0.6871,-0.685,-0.6806,-0.6791,-0.6765,-0.6713,-0.67,-0.6687,-0.6625,-0.6592,-0.6563,-0.6567,-0.6551,-0.6545,-0.6539,-0.6552,-0.6554,-0.6555,-0.656,-0.6562,-0.6536,-0.6535,-0.6535,-0.6535,0,-0.6973,-0.6949,-0.6943,-0.6895,-0.6873,-0.6856,-0.681,-0.6793,-0.6767,-0.6736,-0.6709,-0.6668,-0.663,-0.662,-0.6594,-0.6588,-0.6582,-0.6562,-0.654,-0.6562,-0.6565,-0.6567,-0.6539,-0.6539,-0.6538,-0.6537,0,0,-0.7028,-0.6957,-0.6956,-0.6934,-0.6882,-0.6862,-0.6843,-0.6806,-0.6792,-0.6758,-0.674,-0.6699,-0.668,-0.6656,-0.6626,-0.6617,-0.663,-0.6598,-0.6596,-0.6605,-0.6621,-0.6637,-0.664,-0.6612,-0.6612,-0.6612,-0.6625,0,-0.7044,-0.7008,-0.6969,-0.6946,-0.6924,-0.6881,-0.6864,-0.683,-0.6801,-0.6776,-0.6743,-0.6716,-0.6692,-0.6678,-0.6667,-0.6631,-0.6633,-0.663,-0.6595,-0.6594,-0.6608,-0.6641,-0.6658,-0.6672,-0.6626,-0.6626,-0.6626,0,-0.7059,-0.7027,-0.7003,-0.6953,-0.6942,-0.6928,-0.6891,-0.6868,-0.6829,-0.6808,-0.6781,-0.675,-0.6726,-0.6707,-0.6674,-0.6673,-0.6656,-0.6637,-0.6636,-0.6632,-0.6612,-0.6638,-0.6675,-0.6678,-0.6627,-0.6627,-0.6627,0,-0.7102,-0.7054,-0.7033,-0.7015,-0.6957,-0.6948,-0.6923,-0.6883,-0.6863,-0.683,-0.6817,-0.6782,-0.6762,-0.6735,-0.6695,-0.6685,-0.6666,-0.6644,-0.6648,-0.6649,-0.6646,-0.6647,-0.6682,-0.6635,-0.6635,-0.6635,-0.6635,0,-0.7125,-0.7112,-0.7052,-0.7039,-0.7022,-0.6978,-0.6962,-0.6933,-0.6898,-0.6878,-0.6839,-0.6821,-0.6768,-0.6744,-0.6711,-0.6689,-0.6681,-0.6663,-0.6654,-0.6667,-0.6669,-0.6655,-0.6653,-0.6635,-0.6635,-0.6635,-0.6635,0,-0.7171,-0.713,-0.7105,-0.7052,-0.7038,-0.7029,-0.6983,-0.6968,-0.6937,-0.6912,-0.6904,-0.6854,-0.6823,-0.678,-0.6735,-0.6714,-0.6696,-0.6682,-0.671,-0.6705,-0.6712,-0.6712,-0.674,-0.6741,-0.6693,-0.6694,-0.6694,0,-0.7189,-0.7177,-0.7124,-0.7108,-0.7085,-0.706,-0.704,-0.6995,-0.6976,-0.693,-0.6921,-0.6887,-0.6858,-0.6811,-0.677,-0.6736,-0.6722,-0.6734,-0.6716,-0.6729,-0.6722,-0.6724,-0.6722,-0.6738,-0.6739,-0.6739,-0.674,0,-0.7224,-0.7205,-0.7178,-0.7144,-0.7121,-0.7092,-0.7061,-0.705,-0.6999,-0.6979,-0.6947,-0.6925,-0.688,-0.6847,-0.6808,-0.6781,-0.6752,-0.6746,-0.6745,-0.6757,-0.6774,-0.6766,-0.6722,-0.6745,-0.6745,-0.6744,-0.6744,-0.6744,-0.7257,-0.7245,-0.7206,-0.7177,-0.7149,-0.7121,-0.7105,-0.7071,-0.7045,-0.7006,-0.698,-0.695,-0.6911,-0.6855,-0.6829,-0.6805,-0.6793,-0.6791,-0.6791,-0.6792,-0.6796,-0.6778,-0.6797,-0.6797,-0.6797,-0.6796,-0.6796,0,-0.7291,-0.7263,-0.7237,-0.7196,-0.7173,-0.7148,-0.7112,-0.7095,-0.7069,-0.7035,-0.7008,-0.6972,-0.6939,-0.6896,-0.6861,-0.6849,-0.6835,-0.6842,-0.6842,-0.6837,-0.6809,-0.6813,-0.6854,-0.6854,-0.6854,-0.6854,-0.6854,-0.6854,-0.7306,-0.7285,-0.7261,-0.7225,-0.7197,-0.7169,-0.7151,-0.7124,-0.7097,-0.7059,-0.7032,-0.7004,-0.6966,-0.6928,-0.6897,-0.6885,-0.6874,-0.6885,-0.6869,-0.6844,-0.6838,-0.6834,-0.6838,-0.6883,-0.6883,-0.6899,-0.6899,-0.6899]},{"header":{"parameterUnit":"m.s-1","parameterCategory":1,"la1":30.2991,"la2":30.254,"lo1":-89.0895,"lo2":-89.0444,"dy":0.0017,"dx":0.0017,"nx":28,"ny":28,"refTime":"2024-07-06T03:00:00:Z","depth":0,"parameterNumber":3,"parameterNumberName":"V-component_of_WINDS"},"data":[0,0,0,0,0,0,0,0,0,0,0,0,0,0,0,0,0,0,0,0,0,0,0,0,0,0,0,0,0,0,0,0,0,0,0,0,0,0,0,0,0,0,0,0,0,0,0,0,0,0,0,0,0,0,0,0,0,0,3.7035,3.7034,0,3.7017,3.7017,3.7017,3.6932,3.693,3.6928,3.6926,3.6909,3.691,3.6912,0,0,0,0,0,0,0,0,0,0,0,0,0,3.6995,3.6996,3.7035,3.7034,3.7034,3.7017,3.7017,3.7017,3.6932,3.6929,3.6927,3.6925,3.6908,3.691,3.6912,0,0,0,0,0,0,0,0,0,0,0,0,0,3.6999,3.6997,3.7035,3.699,3.6986,3.7017,3.7017,3.7017,3.6932,3.6929,3.6926,3.6924,3.6908,3.691,3.6912,3.6986,0,0,3.6919,3.692,0,0,0,0,0,0,0,0,3.6998,3.7,3.6997,3.6993,3.6988,3.6973,3.6997,3.7006,3.6933,3.6953,3.6926,3.6922,3.6933,3.6933,3.6936,3.6985,3.6984,3.6919,3.692,3.6921,3.6922,0,0,0,0,0,0,0,3.6998,3.7,3.7028,3.6997,3.6992,3.6971,3.6968,3.6998,3.696,3.6951,3.6945,3.6944,3.693,3.6934,3.6935,3.6984,3.6919,3.6921,3.6922,3.6923,3.7091,3.7094,0,0,0,0,0,0,3.7004,3.7001,3.7028,3.7027,3.6986,3.6974,3.6971,3.6981,3.6959,3.6953,3.6946,3.694,3.6932,3.6933,3.6934,3.7018,3.6921,3.6923,3.6924,3.7088,3.7092,3.7095,0,0,0,0,0,0,3.7004,3.7008,3.7029,3.7012,3.7013,3.6978,3.699,3.6983,3.6987,3.6956,3.6949,3.6957,3.693,3.6931,3.6973,3.7016,3.6924,3.6926,3.7084,3.7089,3.7094,3.7187,0,0,0,0,0,0,3.7003,3.7008,3.7035,3.7013,3.7015,3.7068,3.6993,3.6984,3.699,3.6982,3.6965,3.6959,3.6927,3.697,3.6975,3.7017,3.6928,3.708,3.7086,3.7092,3.718,3.7194,3.7207,0,0,0,0,0,3.7002,3.7063,3.7037,3.7041,3.7048,3.7071,3.7071,3.7034,3.6994,3.7021,3.7002,3.6959,3.7011,3.6975,3.698,3.7024,3.7077,3.7085,3.7092,3.7174,3.7191,3.7206,0,0,0,0,0,0,3.7091,3.7059,3.703,3.7086,3.7082,3.7056,3.709,3.7054,3.7061,3.7053,3.7006,3.7003,3.7052,3.7042,3.7003,3.7093,3.7037,3.7045,3.7098,3.7114,3.7127,3.7128,3.6929,0,0,0,0,0,3.7118,3.7138,3.7109,3.7161,3.716,3.7126,3.7134,3.7106,3.7099,3.7097,3.708,3.7077,3.7091,3.7102,3.7115,3.7178,3.7173,3.721,3.7224,3.7235,3.7243,3.7275,3.7291,3.7119,3.7119,3.7119,0,0,3.7172,3.7157,3.7173,3.7179,3.7172,3.7195,3.7125,3.7152,3.7168,3.7101,3.7139,3.7128,3.712,3.7173,3.7195,3.7166,3.7289,3.7244,3.7253,3.7255,3.7284,3.73,3.7315,3.7124,3.7123,3.7122,0,0,3.7282,3.7273,3.7315,3.7309,3.73,3.7276,3.7287,3.7267,3.7256,3.7293,3.7243,3.7262,3.729,3.7286,3.7288,3.7396,3.7357,3.7402,3.7471,3.7503,3.7517,3.7529,3.7566,3.7581,3.741,3.741,3.741,0,3.7351,3.7382,3.7341,3.7371,3.7375,3.7315,3.7356,3.7353,3.7349,3.7353,3.7321,3.7353,3.7344,3.7394,3.7421,3.7425,3.7434,3.7403,3.7518,3.753,3.754,3.7575,3.759,3.7415,3.7415,3.7414,3.7413,0,3.7467,3.749,3.7524,3.7521,3.7528,3.7564,3.7528,3.7541,3.7512,3.7492,3.7531,3.7518,3.7526,3.7536,3.7508,3.7583,3.7565,3.7526,3.7468,3.7562,3.7595,3.7608,3.7423,3.7421,3.7419,3.7418,0,0,3.7632,3.7605,3.7618,3.7615,3.76,3.7617,3.7651,3.7658,3.7669,3.7669,3.7695,3.7719,3.7683,3.7685,3.7656,3.7685,3.777,3.7642,3.7641,3.7665,3.7851,3.7879,3.7896,3.7745,3.7747,3.7749,3.7851,0,3.7737,3.7791,3.7754,3.7815,3.7835,3.7778,3.7807,3.7801,3.7784,3.7798,3.7779,3.7797,3.7748,3.7749,3.7774,3.7755,3.7807,3.7747,3.7769,3.777,3.7771,3.7913,3.7943,3.804,3.7864,3.7866,3.7867,0,3.7865,3.7869,3.7931,3.7911,3.7919,3.7945,3.7948,3.7963,3.7956,3.7941,3.7943,3.7907,3.7938,3.7882,3.7924,3.7884,3.7891,3.7883,3.7886,3.7886,3.7824,3.7916,3.807,3.8085,3.7887,3.7886,3.7884,0,3.7978,3.7999,3.8039,3.8038,3.8017,3.8036,3.8028,3.8017,3.8024,3.8027,3.8031,3.8039,3.8043,3.805,3.8016,3.7979,3.8063,3.8004,3.8051,3.8052,3.807,3.807,3.8227,3.8077,3.8077,3.8077,3.8076,0,3.8098,3.8138,3.8089,3.8113,3.8156,3.8114,3.8158,3.8144,3.8135,3.8156,3.8108,3.8129,3.8084,3.81,3.8075,3.8113,3.8116,3.8105,3.8097,3.8108,3.811,3.8111,3.8104,3.808,3.8079,3.8079,3.8078,0,3.8231,3.82,3.8239,3.8215,3.821,3.8243,3.8223,3.8244,3.8223,3.825,3.8254,3.8221,3.8238,3.8206,3.8218,3.8201,3.8255,3.8237,3.8257,3.8252,3.83,3.8296,3.8464,3.8484,3.8322,3.8323,3.8325,0,3.8309,3.8338,3.8317,3.8327,3.8322,3.8339,3.8345,3.8305,3.8314,3.8307,3.8329,3.8342,3.8349,3.8378,3.8356,3.8365,3.8347,3.8405,3.8348,3.8358,3.8347,3.8345,3.8347,3.8417,3.8419,3.842,3.8422,0,3.845,3.8433,3.8444,3.8449,3.8458,3.846,3.8459,3.847,3.8428,3.844,3.8456,3.8462,3.8474,3.8487,3.8491,3.8482,3.8445,3.844,3.8451,3.8462,3.8472,3.8467,3.8288,3.8436,3.8435,3.8434,3.8433,3.8432,3.8557,3.8581,3.8569,3.8582,3.8577,3.8577,3.8596,3.8577,3.8589,3.8596,3.8572,3.8593,3.8584,3.8585,3.8581,3.8598,3.8572,3.8588,3.8592,3.8597,3.8604,3.8471,3.8598,3.8598,3.8598,3.8597,3.8597,0,3.8695,3.8685,3.8698,3.8697,3.8708,3.8671,3.8668,3.8679,3.8698,3.8693,3.8701,3.872,3.8732,3.8711,3.8719,3.8736,3.872,3.874,3.8738,3.8737,3.8627,3.8616,3.8753,3.8753,3.8753,3.8753,3.8753,3.8753,3.8768,3.8805,3.8787,3.882,3.881,3.8829,3.8831,3.8831,3.8826,3.8848,3.8858,3.8844,3.8832,3.8839,3.8849,3.8842,3.8848,3.8874,3.8862,3.876,3.8744,3.873,3.8719,3.8876,3.8876,3.8969,3.897,3.8971]}]]